sat.trackr.live / text

‹ back to catalog

STARLINK-2635

NORAD 48355 · 2021-038C

PAYLOAD ACTIVE UNKNOWN

§ Identity

Operator
Country
US
Launch date
2021-05-04
Launch site
AFETR
Launch vehicle
Mass (kg)
RCS (m²)

Purposes: comms

External: N2YO · Heavens-Above · Gunter

§ Orbital elements

Epoch: 2026-09-08T22:59:45.226176Z

Period
94.01 min
Inclination
53.1579°
Eccentricity
0.0001680
Mean motion
15.31698185 rev/d
Perigee alt
469.6 km
Apogee alt
471.9 km
Semi-major
6,848.9 km
B*
-2.2480e-4
RAAN
225.2277°
Arg perigee
92.8321°
Mean anomaly
267.2873°
Rev number
29,516

§ Raw data

STARLINK-26351 48355U 21038C   26251.95816234 -.00007334  00000+0 -22480-3 0  99902 48355  53.1579 225.2277 0001680  92.8321 267.2873 15.31698185295169

JSON: /api/v1/satellites/48355 · /tle

For live sub-satellite position, see the globe view (requires WebGL).

§ Visibility from observer

Set your observer location to see the next 7 days of passes ≥ 10°. The values pass through the URL so the page stays shareable.

No JS? Fill the form by hand. The geolocation button needs JavaScript.